Date String (YYYY-MM-DD hh:mm:ss) UTC,Instrument flags,Ambient pressure (hPa),Sample flow (lpm),Bypass flow (lpm),Sample temperature (°C),Ambient temperature (°C),ASC tube jacket temperature (°C),LED temperature (°C),Box temperature (°C),Sample RH (%),Span deviation,Mass concentration (μg/m³),Mass concentration (μg/m³),Mass concentration (μg/m³)
DateTimeUTC,F1_M11,P_M11,Q1_M11,Q2_M11,T1_M11,T2_M11,T3_M11,T4_M11,T5_M11,U1_M11,ZSPAN_M11,X0_M11,X2_M11,X1_M11
2023-02-07 06:00:00,,0827.1,4.97,0.00,22.4,22.4,00.0,31.0,24.3,11.8,0000.0,0011.65,0003.87,0003.02
2023-02-07 06:01:00,,0827.2,5.01,0.00,22.4,22.0,00.0,31.0,24.3,11.7,0000.0,0012.73,0004.02,0003.08
2023-02-07 06:02:00,,0827.2,5.03,0.00,22.4,21.7,00.0,31.1,24.2,11.7,0000.0,0012.90,0004.07,0003.13
2023-02-07 06:03:00,,0827.2,5.01,0.00,22.4,21.5,00.0,31.1,24.2,11.6,0000.0,0012.93,0004.07,0003.17
2023-02-07 06:04:00,,0827.2,5.00,0.00,22.4,21.3,00.0,31.1,24.2,11.6,0000.0,0013.57,0004.11,0003.19
2023-02-07 06:05:00,,0827.2,4.96,0.00,22.4,21.2,00.0,31.1,24.2,11.6,0000.0,0013.22,0004.13,0003.21
2023-02-07 06:06:00,,0827.2,5.09,0.00,22.3,21.0,00.0,31.1,24.1,11.6,0000.0,0013.76,0004.30,0003.24
2023-02-07 06:07:00,,0827.2,4.95,0.00,22.3,21.0,00.0,31.1,24.1,11.6,0000.0,0014.66,0004.43,0003.26
2023-02-07 06:08:00,,0827.2,5.07,0.00,22.3,20.9,00.0,31.1,24.1,11.7,0000.0,0015.91,0004.45,0003.26
2023-02-07 06:09:00,,0827.2,4.98,0.00,22.3,20.9,00.0,31.1,24.1,11.8,0000.0,0015.64,0004.50,0003.26
2023-02-07 06:10:00,,0827.2,5.00,0.00,22.3,20.9,00.0,31.1,24.1,11.9,0000.0,0015.53,0004.54,0003.25
2023-02-07 06:11:00,,0827.2,5.04,0.00,22.3,20.9,00.0,31.1,24.0,11.9,0000.0,0015.57,0004.52,0003.23
2023-02-07 06:12:00,,0827.2,4.96,0.00,22.3,20.9,00.0,31.1,24.0,12.0,0000.0,0015.24,0004.52,0003.22
2023-02-07 06:13:00,,0827.2,4.99,0.00,22.3,20.9,00.0,31.1,24.0,12.0,0000.0,0015.62,0004.57,0003.19
2023-02-07 06:14:00,,0827.2,5.04,0.00,22.3,20.9,00.0,31.1,24.0,12.1,0000.0,0015.65,0004.61,0003.17
2023-02-07 06:15:00,,0827.2,5.01,0.00,22.3,20.9,00.0,31.1,24.0,12.2,0000.0,0016.11,0004.62,0003.14
2023-02-07 06:16:00,,0827.3,4.98,0.00,22.3,20.9,00.0,31.1,24.0,12.3,0000.0,0016.70,0004.64,0003.12
2023-02-07 06:17:00,,0827.2,4.99,0.00,22.2,20.9,00.0,31.1,24.0,12.3,0000.0,0016.40,0004.51,0003.10
2023-02-07 06:18:00,,0827.3,5.04,0.00,22.2,20.9,00.0,31.1,24.0,12.3,0000.0,0015.58,0004.43,0003.07
2023-02-07 06:19:00,,0827.3,4.98,0.00,22.2,20.8,00.0,31.1,23.9,12.3,0000.0,0013.89,0004.35,0003.05
2023-02-07 06:20:00,,0827.3,5.01,0.00,22.2,20.8,00.0,31.1,23.9,12.3,0000.0,0014.04,0004.22,0003.01
2023-02-07 06:21:00,,0827.2,5.03,0.00,22.2,20.8,00.0,31.1,23.9,12.4,0000.0,0013.71,0004.13,0003.01
2023-02-07 06:22:00,,0827.3,4.98,0.00,22.2,20.8,00.0,31.1,23.9,12.5,0000.0,0013.15,0004.04,0003.04
2023-02-07 06:23:00,,0827.3,5.01,0.00,22.2,20.8,00.0,31.1,23.9,12.5,0000.0,0012.01,0003.94,0003.03
2023-02-07 06:24:00,,0827.3,4.99,0.00,22.2,20.8,00.0,31.1,23.9,12.5,0000.0,0011.47,0003.89,0003.03
2023-02-07 06:25:00,,0827.4,4.97,0.00,22.2,20.8,00.0,31.1,23.9,12.5,0000.0,0010.89,0003.83,0003.04
2023-02-07 06:26:00,,0827.4,4.99,0.00,22.2,20.8,00.0,31.1,23.9,12.5,0000.0,0009.78,0003.76,0003.04
2023-02-07 06:27:00,,0827.4,5.03,0.00,22.1,20.7,00.0,31.0,23.9,12.6,0000.0,0008.72,0003.69,0003.02
2023-02-07 06:28:00,,0827.4,5.02,0.00,22.1,20.8,00.0,31.0,23.9,12.6,0000.0,0008.24,0003.67,0003.00
2023-02-07 06:29:00,,0827.4,4.97,0.00,22.2,21.4,00.0,31.0,24.1,12.6,0000.0,0008.10,0003.64,0002.99
2023-02-07 06:30:00,,0827.4,5.01,0.00,22.3,22.3,00.0,31.0,24.3,12.6,0000.0,0008.16,0003.62,0003.02
2023-02-07 06:31:00,,0827.4,5.00,0.00,22.4,22.8,00.0,31.0,24.4,12.5,0000.0,0008.05,0003.62,0003.02
2023-02-07 06:32:00,,0827.4,4.97,0.00,22.4,22.4,00.0,31.1,24.4,12.4,0000.0,0007.95,0003.62,0003.00
2023-02-07 06:33:00,,0827.4,5.06,0.00,22.4,22.1,00.0,31.1,24.3,12.5,0000.0,0007.97,0003.61,0002.95
2023-02-07 06:34:00,,0827.4,4.97,0.00,22.4,21.8,00.0,31.1,24.3,12.5,0000.0,0007.87,0003.58,0002.95
2023-02-07 06:35:00,,0827.4,5.04,0.00,22.4,21.6,00.0,31.2,24.3,12.6,0000.0,0007.76,0003.54,0002.93
2023-02-07 06:36:00,,0827.4,4.98,0.00,22.4,21.4,00.0,31.2,24.2,12.6,0000.0,0008.20,0003.56,0002.92
2023-02-07 06:37:00,,0827.4,5.00,0.00,22.4,21.3,00.0,31.2,24.2,12.6,0000.0,0008.45,0003.52,0002.88
2023-02-07 06:38:00,,0827.4,5.04,0.00,22.4,21.2,00.0,31.2,24.2,12.7,0000.0,0008.82,0003.51,0002.86
2023-02-07 06:39:00,,0827.5,5.01,0.00,22.4,21.1,00.0,31.2,24.2,12.7,0000.0,0008.86,0003.49,0002.86
2023-02-07 06:40:00,,0827.5,5.05,0.00,22.4,21.0,00.0,31.2,24.2,12.7,0000.0,0008.92,0003.50,0002.86
2023-02-07 06:41:00,,0827.5,4.95,0.00,22.4,21.0,00.0,31.2,24.2,12.7,0000.0,0008.88,0003.50,0002.86
2023-02-07 06:42:00,,0827.5,4.99,0.00,22.4,20.9,00.0,31.2,24.2,12.6,0000.0,0008.04,0003.47,0002.86
2023-02-07 06:43:00,,0827.5,5.01,0.00,22.4,20.9,00.0,31.2,24.2,12.5,0000.0,0007.96,0003.45,0002.86
2023-02-07 06:44:00,,0827.5,5.01,0.00,22.3,20.9,00.0,31.2,24.1,12.5,0000.0,0008.17,0003.44,0002.82
2023-02-07 06:45:00,,0827.5,4.97,0.00,22.3,20.9,00.0,31.2,24.1,12.7,0000.0,0008.38,0003.44,0002.79
2023-02-07 06:46:00,,0827.5,4.97,0.00,22.3,20.9,00.0,31.2,24.1,12.7,0000.0,0008.44,0003.44,0002.78
2023-02-07 06:47:00,,0827.5,5.03,0.00,22.3,20.9,00.0,31.2,24.1,12.8,0000.0,0008.26,0003.42,0002.75
2023-02-07 06:48:00,,0827.5,4.94,0.00,22.3,20.9,00.0,31.2,24.1,12.8,0000.0,0007.71,0003.41,0002.76
2023-02-07 06:49:00,,0827.5,5.02,0.00,22.3,20.9,00.0,31.2,24.0,12.7,0000.0,0007.65,0003.44,0002.78
2023-02-07 06:50:00,,0827.5,5.01,0.00,22.3,20.8,00.0,31.2,24.0,12.7,0000.0,0007.45,0003.45,0002.77
2023-02-07 06:51:00,,0827.5,4.98,0.00,22.3,20.7,00.0,31.2,24.0,12.7,0000.0,0007.39,0003.43,0002.76
2023-02-07 06:52:00,,0827.6,4.96,0.00,22.2,20.7,00.0,31.2,24.0,12.7,0000.0,0007.34,0003.40,0002.71
2023-02-07 06:53:00,,0827.5,5.03,0.00,22.2,20.7,00.0,31.1,24.0,12.7,0000.0,0007.65,0003.44,0002.69
2023-02-07 06:54:00,,0827.5,4.95,0.00,22.2,20.6,00.0,31.1,23.9,12.8,0000.0,0007.78,0003.46,0002.69
2023-02-07 06:55:00,,0827.5,5.04,0.00,22.2,20.6,00.0,31.1,23.9,12.8,0000.0,0007.87,0003.46,0002.71
2023-02-07 06:56:00,,0827.5,5.02,0.00,22.2,20.5,00.0,31.1,23.9,12.8,0000.0,0007.64,0003.45,0002.71
2023-02-07 06:57:00,,0827.5,4.97,0.00,22.2,20.7,00.0,31.1,23.9,12.8,0000.0,0008.24,0003.46,0002.71
2023-02-07 06:58:00,,0827.6,4.97,0.00,22.2,21.5,00.0,31.0,24.1,12.8,0000.0,0009.18,0003.49,0002.72
2023-02-07 06:59:00,,0827.6,5.04,0.00,22.3,22.5,00.0,31.0,24.3,12.7,0000.0,0009.77,0003.56,0002.72
